TIANMU-1 18

Last updated on Wed Sep 17 2025 00:02:23 GMT+0000 (Coordinated Universal Time)

1 58703U 24004D 25259.59479431 .00006772 00000+0 29036-3 0 9992 2 58703 97.4668 81.4782 0004471 220.5415 139.5489 15.23061916 94073
UTC large
Height (km)
Speed (km/s)
/
Latitude / Longitude
Inclination (degrees)
Orbital Period (minutes)
Azimuth
Elevation
Range (km)
Doppler Factor

Next 0 passes for location: London (51.5072 / 0.1276)

Sorry there are no passes over London.